| time (UTC) | temp F | wind direction | speed MPH | gust MPH | rain 1hr in | rain 24hr in | rain mn in | humidity % | barometer mb |
| 20260510213030 | 79 | 288 | 0.0 | 0.0 | 0.00 | 0.00 | 0.00 | 61 | 1016.2 |
| 20260510211530 | 78 | 350 | 0.0 | 0.0 | 0.00 | 0.00 | 0.00 | 63 | 1016.1 |
| 20260510210011 | 78 | 261 | 0.0 | 0.0 | 0.00 | 0.00 | 0.00 | 65 | 1016.1 |
| 20260510204511 | 78 | 169 | 0.0 | 0.0 | 0.00 | 0.00 | 0.00 | 65 | 1016.2 |
| 20260510203053 | 79 | 126 | 0.0 | 0.0 | 0.00 | 0.00 | 0.00 | 65 | 1016.2 |
| 20260510201554 | 78 | 225 | 0.0 | 0.0 | 0.00 | 0.00 | 0.00 | 65 | 1016.2 |
| 20260510200038 | 77 | 180 | 0.0 | 0.0 | 0.00 | 0.00 | 0.00 | 69 | 1016.4 |
| 20260510194538 | 77 | 307 | 0.0 | 0.0 | 0.00 | 0.00 | 0.00 | 67 | 1016.5 |
| 20260510193039 | 78 | 325 | 0.0 | 0.0 | 0.00 | 0.00 | 0.00 | 68 | 1016.4 |
| 20260510191536 | 77 | 42 | 0.0 | 0.0 | 0.00 | 0.00 | 0.00 | 68 | 1016.6 |
| 20260510190037 | 77 | 130 | 0.0 | 0.0 | 0.00 | 0.00 | 0.00 | 69 | 1016.8 |
| 20260510184532 | 77 | 109 | 0.0 | 0.0 | 0.00 | 0.00 | 0.00 | 71 | 1016.8 |
| 20260510183033 | 76 | 145 | 0.0 | 0.0 | 0.00 | 0.00 | 0.00 | 69 | 1016.9 |
| 20260510181531 | 76 | 195 | 0.0 | 0.0 | 0.00 | 0.00 | 0.00 | 72 | 1017.0 |
| 20260510180011 | 75 | 126 | 0.0 | 0.0 | 0.00 | 0.00 | 0.00 | 73 | 1017.1 |
| 20260510174510 | 76 | 179 | 0.0 | 0.0 | 0.00 | 0.00 | 0.00 | 71 | 1017.4 |
| 20260510173053 | 75 | 140 | 0.0 | 0.0 | 0.00 | 0.00 | 0.00 | 73 | 1017.7 |
| 20260510171553 | 75 | 242 | 0.0 | 0.0 | 0.00 | 0.00 | 0.00 | 76 | 1017.9 |
| 20260510170029 | 74 | 144 | 0.0 | 0.0 | 0.00 | 0.00 | 0.00 | 78 | 1017.8 |
| 20260510164529 | 72 | 153 | 0.0 | 0.0 | 0.00 | 0.00 | 0.00 | 81 | 1018.0 |
| 20260510163009 | 72 | 98 | 0.0 | 0.0 | 0.00 | 0.00 | 0.00 | 81 | 1018.0 |
| 20260510161509 | 72 | 194 | 0.0 | 0.0 | 0.00 | 0.00 | 0.00 | 80 | 1017.9 |
| 20260510160050 | 72 | 126 | 0.0 | 0.0 | 0.00 | 0.00 | 0.00 | 80 | 1018.0 |
| 20260510154554 | 72 | 300 | 0.0 | 0.0 | 0.00 | 0.00 | 0.00 | 82 | 1017.8 |
| 20260510153026 | 71 | 123 | 0.0 | 0.0 | 0.00 | 0.00 | 0.00 | 83 | 1018.0 |
| 20260510151531 | 69 | 338 | 0.0 | 0.0 | 0.00 | 0.00 | 0.00 | 86 | 1017.8 |
| 20260510150002 | 68 | 306 | 0.0 | 0.0 | 0.00 | 0.00 | 0.00 | 86 | 1018.0 |
| 20260510144600 | 67 | 186 | 0.0 | 0.0 | 0.00 | 0.00 | 0.00 | 88 | 1018.0 |
| 20260510143040 | 67 | 147 | 0.0 | 0.0 | 0.00 | 0.00 | 0.00 | 89 | 1018.1 |
| 20260510141540 | 0 | 0.0 | 0.0 | 0.00 | 0.00 | 0.00 | 1018.2 | ||
| 20260510140016 | 0 | 0.0 | 0.0 | 0.00 | 0.00 | 0.00 | 1018.3 | ||
| 20260510134512 | 0 | 0.0 | 0.0 | 0.00 | 0.00 | 0.00 | 1018.1 | ||
| 20260510133050 | 0 | 0.0 | 0.0 | 0.00 | 0.00 | 0.00 | 1018.1 | ||
| 20260510131546 | 0 | 0.0 | 0.0 | 0.00 | 0.00 | 0.00 | 1017.7 | ||
| 20260510130025 | 0 | 0.0 | 0.0 | 0.00 | 0.00 | 0.00 | 1017.7 | ||
| 20260510124527 | 0 | 0.0 | 0.0 | 0.00 | 0.00 | 0.00 | 1017.5 | ||
| 20260510123101 | 0 | 0.0 | 0.0 | 0.00 | 0.00 | 0.00 | 1017.3 | ||
| 20260510121556 | 0 | 0.0 | 0.0 | 0.00 | 0.00 | 0.00 | 1017.1 | ||
| 20260510120033 | 0 | 0.0 | 0.0 | 0.00 | 0.00 | 0.00 | 1016.7 | ||
| 20260510114529 | 0 | 0.0 | 0.0 | 0.00 | 0.00 | 0.00 | 1016.4 | ||
| 20260510113008 | 0 | 0.0 | 0.0 | 0.00 | 0.00 | 0.00 | 1016.1 | ||
| 20260510111503 | 0 | 0.0 | 0.0 | 0.00 | 0.00 | 0.00 | 1015.8 | ||
| 20260510110045 | 0 | 0.0 | 0.0 | 0.00 | 0.00 | 0.00 | 1015.7 | ||
| 20260510104538 | 0 | 0.0 | 0.0 | 0.00 | 0.00 | 0.00 | 1015.6 | ||
| 20260510103016 | 0 | 0.0 | 0.0 | 0.00 | 0.00 | 0.00 | 1015.3 | ||
| 20260510101512 | 0 | 0.0 | 0.0 | 0.00 | 0.00 | 0.00 | 1015.1 | ||
| 20260510100053 | 63 | 87 | 0.0 | 0.0 | 0.00 | 0.00 | 0.00 | 93 | 1015.0 |
| 20260510094556 | 63 | 229 | 0.0 | 0.0 | 0.00 | 0.00 | 0.00 | 94 | 1014.8 |
| 20260510093033 | 63 | 347 | 0.0 | 0.0 | 0.00 | 0.00 | 0.00 | 93 | 1014.6 |
| 20260510091534 | 63 | 347 | 0.0 | 0.0 | 0.00 | 0.00 | 0.00 | 94 | 1014.5 |
| 20260510090011 | 62 | 157 | 0.0 | 0.0 | 0.00 | 0.00 | 0.00 | 93 | 1014.4 |
| 20260510084517 | 62 | 161 | 0.0 | 0.0 | 0.00 | 0.00 | 0.00 | 93 | 1014.2 |
| 20260510083105 | 62 | 161 | 0.0 | 0.0 | 0.00 | 0.00 | 0.00 | 93 | 1014.2 |
| 20260510081553 | 62 | 158 | 0.0 | 0.0 | 0.00 | 0.00 | 0.00 | 93 | 1014.0 |
| 20260510080034 | 61 | 160 | 0.0 | 0.0 | 0.00 | 0.00 | 0.00 | 93 | 1014.1 |
| 20260510074534 | 61 | 159 | 0.0 | 0.0 | 0.00 | 0.00 | 0.00 | 93 | 1013.9 |
| 20260510073020 | 61 | 155 | 0.0 | 0.0 | 0.00 | 0.00 | 0.00 | 93 | 1013.8 |
| 20260510071514 | 62 | 155 | 0.0 | 0.0 | 0.00 | 0.00 | 0.00 | 93 | 1014.0 |
| 20260510070001 | 62 | 155 | 0.0 | 0.0 | 0.00 | 0.00 | 0.00 | 93 | 1014.2 |
| 20260510064606 | 61 | 155 | 0.0 | 0.0 | 0.00 | 0.00 | 0.00 | 93 | 1014.2 |
| 20260510063059 | 61 | 155 | 0.0 | 0.0 | 0.00 | 0.00 | 0.00 | 93 | 1014.3 |
| 20260510061600 | 61 | 155 | 0.0 | 0.0 | 0.00 | 0.00 | 0.00 | 93 | 1014.3 |
| 20260510060058 | 61 | 155 | 0.0 | 0.0 | 0.00 | 0.00 | 0.00 | 93 | 1014.4 |
| 20260510054556 | 62 | 155 | 0.0 | 0.0 | 0.00 | 0.00 | 0.00 | 93 | 1014.4 |
| 20260510053055 | 62 | 155 | 0.0 | 0.0 | 0.00 | 0.00 | 0.00 | 92 | 1014.5 |
| 20260510051603 | 62 | 155 | 0.0 | 0.0 | 0.00 | 0.00 | 0.00 | 92 | 1014.6 |
| 20260510050035 | 62 | 155 | 0.0 | 0.0 | 0.00 | 0.00 | 0.00 | 92 | 1014.6 |
| 20260510044534 | 62 | 155 | 0.0 | 0.0 | 0.00 | 0.00 | 0.00 | 92 | 1014.6 |
| 20260510043015 | 63 | 155 | 0.0 | 0.0 | 0.00 | 0.00 | 0.00 | 92 | 1014.6 |
| 20260510041513 | 63 | 155 | 0.0 | 0.0 | 0.00 | 0.00 | 0.00 | 92 | 1014.7 |
| 20260510040057 | 63 | 155 | 0.0 | 0.0 | 0.00 | 0.00 | 0.00 | 92 | 1014.6 |
| 20260510034554 | 64 | 155 | 0.0 | 0.0 | 0.00 | 0.00 | 0.00 | 91 | 1014.7 |
| 20260510033036 | 64 | 155 | 0.0 | 0.0 | 0.00 | 0.00 | 0.00 | 91 | 1014.6 |
| 20260510031536 | 65 | 155 | 0.0 | 0.0 | 0.00 | 0.00 | 0.00 | 91 | 1014.6 |
| 20260510030019 | 65 | 155 | 0.0 | 0.0 | 0.00 | 0.00 | 0.00 | 91 | 1014.7 |
| 20260510024515 | 66 | 155 | 0.0 | 0.0 | 0.00 | 0.00 | 0.00 | 90 | 1014.5 |
| 20260510023114 | 66 | 157 | 0.0 | 0.0 | 0.00 | 0.00 | 0.00 | 90 | 1014.4 |
| 20260510021601 | 66 | 157 | 0.0 | 0.0 | 0.00 | 0.00 | 0.00 | 90 | 1014.2 |
| 20260510020053 | 67 | 157 | 0.0 | 0.0 | 0.00 | 0.00 | 0.00 | 90 | 1013.9 |
| 20260510014541 | 67 | 157 | 0.0 | 0.0 | 0.00 | 0.00 | 0.00 | 89 | 1013.7 |
| 20260510013040 | 67 | 157 | 0.0 | 0.0 | 0.00 | 0.00 | 0.00 | 89 | 1013.4 |
| 20260510011546 | 67 | 186 | 0.0 | 0.0 | 0.00 | 0.00 | 0.00 | 89 | 1013.2 |
| 20260510010039 | 68 | 167 | 0.0 | 0.0 | 0.00 | 0.00 | 0.00 | 88 | 1012.9 |
| 20260510004539 | 68 | 171 | 0.0 | 0.0 | 0.00 | 0.00 | 0.00 | 88 | 1012.7 |
| 20260510003041 | 69 | 346 | 0.0 | 0.0 | 0.00 | 0.00 | 0.00 | 87 | 1012.7 |
| 20260510001538 | 69 | 172 | 0.0 | 0.0 | 0.00 | 0.00 | 0.00 | 86 | 1012.7 |
| 20260510000041 | 69 | 151 | 0.0 | 0.0 | 0.00 | 0.00 | 0.00 | 85 | 1012.4 |
| 20260509234530 | 70 | 128 | 0.0 | 0.0 | 0.00 | 0.00 | 0.00 | 85 | 1012.3 |
| 20260509233020 | 70 | 171 | 0.0 | 0.0 | 0.00 | 0.00 | 0.00 | 84 | 1012.1 |
| 20260509231510 | 71 | 165 | 0.0 | 0.0 | 0.00 | 0.00 | 0.00 | 83 | 1012.0 |
| 20260509230002 | 71 | 123 | 0.0 | 0.0 | 0.00 | 0.00 | 0.00 | 82 | 1011.7 |
| 20260509224555 | 72 | 171 | 0.0 | 0.0 | 0.00 | 0.00 | 0.00 | 81 | 1011.8 |
| 20260509223052 | 72 | 157 | 0.0 | 0.0 | 0.00 | 0.00 | 0.00 | 81 | 1011.7 |
| 20260509221550 | 72 | 175 | 0.0 | 0.0 | 0.00 | 0.00 | 0.00 | 79 | 1011.5 |
| 20260509220049 | 73 | 190 | 0.0 | 0.0 | 0.00 | 0.00 | 0.00 | 78 | 1011.4 |
| 20260509214549 | 73 | 197 | 0.0 | 0.0 | 0.00 | 0.00 | 0.00 | 77 | 1011.4 |